RADUGA 10 [-]

Last updated on June 16, 2019, 3:38 a.m. UTC

1 12897U 81102A   19164.98382736 -.00000061  00000-0  00000-0 0  9994
2 12897  12.2697 320.9499 0002695 128.0237 236.9154  1.00251777 91670
UTC
Height (km)
Latitude
Longitude
Inclination
Orbital Period
UTC large
Height (km)
Speed (km/s)
/
Latitude / Longitude
Inclination (degrees)
Orbital Period (minutes)
Azimuth
Elevation
Range (km)
Doppler Factor
iOS Compass Heading
iOS Angle

Next 30 passes for location: Hong Kong

Rise time Rise Azimuth (degrees) Set time Set Azimuth (degrees) Duration Max altitude (degrees)

No matching passes for this satellites